Current weather by "City, St" or "zip code"  
 
Advertise Here

Current Conditions: Lawton, Lawton Municipal Airport, OK

Fair


40.0 F

Last Updated on Jan 27 2021, 1:53 pm CST
Humidity: 53%
Wind Speed: NW 13.8 G 19.6 mph
Barometer 30.41 in
Dewpoint: 24.1 F
Visibility: 10.00 mi
Precip: --
Heat Index: NA
Wind Chill: 32 F
Current conditions at:

Lawton, Lawton Municipal Airport, OK (KLAW)

Lat: 34.5575 Lon: 98.41667

Local Radar Image active severe weather and emergency alerts image image weather storm and storm spotter reports image weather observation monitoring service image
Local
Radar
Active
Alerts
Storm Reports Obs
Monitoring

Sign-up For Email & Text Message Weather Alert Notification Services


Advertise Here

Observation History for Lawton, Lawton Municipal Airport, OK


Time Wind
(mph)
Vis
(mi)
Weather Precip (in) Temperature (F) Relative
Humidity
Wind
Chill
(F)
Heat
Index
(F)
Pressure
Air Dwpt altimeter
(in)
sea level
(mb)
Rmks
1:53 pm CST NW 13.8 G 19.6 10.00 Fair -- 40.0 24.1 53% 32 NA 30.41 1030.7
12:53 pm CST N 15.0 10.00 Overcast -- 39.0 25.0 57% 31 NA 30.43 1031.2
11:53 am CST N 13.8 10.00 Overcast -- 38.0 25.0 60% 30 NA 30.44 1031.8
10:53 am CST N 10.4 10.00 Mostly Cloudy -- 36.0 25.0 64% 28 NA 30.43 1031.3
9:53 am CST N 16.1 8.00 Overcast -- 35.0 26.1 70% 25 NA 30.38 1029.7
8:53 am CST N 11.5 6.00 Overcast with Haze -- 32.0 26.1 79% 23 NA 30.34 1028.4
7:53 am CST N 5.8 4.00 Fog/Mist -- 28.0 24.1 85% 22 NA 30.28 1026.3
6:53 am CST N 9.2 6.00 Mostly Cloudy with Haze -- 29.0 24.1 82% 20 NA 30.24 1024.8
5:53 am CST N 12.7 6.00 Fog/Mist -- 29.0 25.0 85% 19 NA 30.21 1024.0
4:53 am CST N 9.2 6.00 Fog/Mist -- 28.0 24.1 85% 19 NA 30.18 1022.9
3:53 am CST N 9.2 6.00 Fair with Haze -- 29.0 24.1 82% 20 NA 30.17 1022.2
2:53 am CST N 9.2 7.00 Fair -- 30.0 25.0 82% 22 NA 30.16 1021.9
1:53 am CST N 12.7 8.00 Fair -- 32.0 26.1 79% 22 NA 30.12 1020.8
12:53 am CST N 11.5 8.00 Fair -- 33.0 26.1 75% 24 NA 30.11 1020.2
11:53 pm CST NE 10.4 9.00 Partly Cloudy -- 33.0 26.1 75% 25 NA 30.07 1019.0
10:53 pm CST NE 11.5 10.00 Overcast -- 33.0 26.1 75% 24 NA 30.08 1019.5
9:53 pm CST N 12.7 10.00 Overcast -- 33.0 25.0 72% 24 NA 30.10 1020.0
8:53 pm CST NE 15.0 9.00 Overcast -- 33.0 25.0 72% 23 NA 30.05 1018.6
7:53 pm CST N 13.8 10.00 Fair -- 34.0 26.1 73% 25 NA 30.03 1017.9
6:53 pm CST N 10.4 9.00 Fair -- 36.0 26.1 67% 28 NA 30.01 1017.3
5:53 pm CST N 10.4 9.00 Fair -- 37.0 26.1 65% 30 NA 30.00 1016.5
4:53 pm CST N 9.2 10.00 Fair -- 42.0 26.1 53% 36 NA 29.97 1015.4
3:53 pm CST N 8.1 10.00 Fair -- 44.0 26.1 49% 39 NA 29.95 1014.6
2:53 pm CST NE 15.0 10.00 Fair -- 43.0 27.0 53% 36 NA 29.93 1014.3

Regional Weather Observation


Lawton, Lawton Municipal Airport, OK (KLAW)

Fair
40.0 F

Frederick, Frederick Municipal Airport, OK (KFDR)

Fair
41.0 F

Hobart, Hobart Municipal Airport, OK (KHBR)

Fair
40.0 F

Altus Air Force Base, OK (KLTS)

Mostly Cloudy
35.0 F

Altus, Altus/Quartz Mountain Regional Airport, OK (KAXS)

Fair
41.0 F

Duncan, Halliburton Field Airport, OK (KDUC)

Partly Cloudy
39.0 F